Location: Sewell
(39.7660°N, 75.1450°W)
Time: 14:10:35
(UTC-05:00)

ISS - Visible Passes

Search period start: 31 January 2015 00:00
Search period end: 10 February 2015 00:00
Orbit: 400 x 408 km, 51.6° (Epoch: 31 January)

Date Brightness Start Highest point End Pass type
(mag) Time Alt. Az. Time Alt. Az. Time Alt. Az.
03 Feb -1.3 19:22:08 10° SW 19:23:34 23° SSW 19:23:34 23° SSW visible
04 Feb -2.2 18:30:14 10° SSW 18:33:02 27° SE 18:33:50 24° ESE visible
04 Feb 0.3 20:06:27 10° W 20:06:31 10° W 20:06:31 10° W visible
05 Feb -2.7 19:13:43 10° WSW 19:16:39 54° WNW 19:16:39 54° WNW visible
06 Feb -3.4 18:21:16 10° SW 18:24:29 72° SE 18:26:41 19° ENE visible
06 Feb 0.0 19:58:48 10° WNW 19:59:21 13° WNW 19:59:21 13° WNW visible
07 Feb -1.8 19:05:43 10° W 19:08:36 28° NNW 19:09:16 26° N visible
08 Feb -2.5 18:12:49 10° WSW 18:15:58 47° NNW 18:19:05 11° NE visible
08 Feb -0.1 19:51:20 10° NW 19:51:44 11° NW 19:51:44 11° NW visible
09 Feb -1.1 18:57:58 10° WNW 19:00:16 17° NNW 19:01:27 15° N visible
